EUTELSAT 36A

Last updated on Sun Feb 26 2017 00:17:09 GMT+0000 (Coordinated Universal Time)

1 26369U 00028A 17055.70673149 -.00000151 00000-0 00000-0 0 9999 2 26369 0.7799 84.8480 0001763 269.3187 135.5002 1.00270871 61352
UTC large
Height (km)
Speed (km/s)
/
Latitude / Longitude
Inclination (degrees)
Orbital Period (minutes)
Azimuth
Elevation
Range (km)
Doppler Factor

Next 0 passes for location: London (51.5072 / 0.1276)

Sorry there are no passes over London.
EUTELSAT 36A